Wind_Speed
7 6 6 6 6 7 8 9 9 9 9 10 9 9 8 7 6 5 6 7 8 10 11 12 14 15 16 17 18 19 21 22 23 25 26 27 28 29 30 31 32 33 34 35 36 37 38 39 40
9 9 9 9 9 8 9 9 9 8 7 7 7 6 5 5 6 7 8 10 11 12 13 14 15 16 17 19 20 21 23 24 26 28 29 30 31 31 32 33 35 36 37 38 39 41 42 43 44
10 10 10 10 9 8 8 8 7 6 5 5 5 5 5 6 8 9 11 12 13 14 15 16 17 18 19 20 22 24 25 27 29 30 31 31 32 33 34 36 37 38 39 41 42 44 45 46 48
9 9 9 9 7 7 6 5 5 4 3 4 5 6 8 9 11 12 14 15 15 16 16 17 18 19 21 23 24 26 27 29 30 31 32 33 34 35 36 38 39 41 42 44 46 47 49 51 52
8 7 7 5 4 4 4 3 3 4 5 6 8 9 11 12 13 15 15 16 16 16 17 18 20 22 24 25 27 28 29 30 31 32 33 34 36 37 39 40 42 44 46 48 50 52 54 56 58
6 5 4 4 4 3 3 4 5 6 8 10 12 13 13 14 14 15 15 16 16 17 19 20 23 24 26 27 29 30 30 31 32 33 35 37 39 40 42 44 46 48 50 52 55 57 59 61 63
4 4 3 4 6 6 7 8 9 11 12 13 15 15 14 14 14 14 15 16 17 19 21 23 24 26 27 28 29 30 31 33 34 36 38 40 41 43 45 47 49 52 55 57 60 62 65 67 69
6 6 7 8 9 10 10 11 12 13 13 14 15 14 13 13 13 14 15 16 18 20 22 24 25 26 27 29 30 31 33 35 37 39 41 43 44 46 48 51 53 56 58 61 64 67 70 73 77
10 9 10 11 12 12 12 12 12 13 13 13 13 13 12 12 13 14 16 17 19 21 22 24 25 26 28 29 31 33 36 38 40 42 43 45 47 49 51 53 56 58 61 64 67 71 75 79 83
10 10 10 11 12 12 11 11 10 11 11 10 11 11 11 12 13 15 16 18 19 21 22 24 25 27 29 31 33 35 38 40 42 44 45 47 49 51 53 56 58 61 64 67 71 75 79 84 89
9 9 8 9 9 10 9 8 8 9 9 9 9 10 11 12 13 15 16 18 19 21 22 24 26 28 30 32 35 37 39 41 43 45 47 49 51 53 55 58 60 63 66 69 74 78 83 89 94
9 7 7 7 7 7 8 7 8 9 9 10 9 10 10 11 13 14 15 17 19 21 23 25 27 29 31 33 36 38 40 42 44 46 48 50 52 54 57 59 62 64 68 71 76 81 87 92 98
8 7 6 6 6 7 7 8 8 9 10 10 10 10 10 11 12 13 15 17 19 21 23 25 27 30 32 34 36 38 40 42 44 46 48 50 52 54 57 59 62 65 69 73 78 84 90 95 99
7 7 7 6 6 7 8 8 8 8 9 9 10 10 10 11 12 14 15 17 19 21 23 26 28 30 32 35 37 38 41 43 44 46 48 50 52 55 57 59 63 66 71 75 81 87 92 95 96
7 7 7 7 7 8 9 8 7 7 8 8 8 9 9 11 12 14 16 18 20 22 25 27 29 31 33 35 37 39 41 43 45 47 49 51 53 55 57 60 64 68 73 78 84 89 92 93 92
7 7 8 7 7 7 8 8 6 6 6 7 7 8 9 11 13 15 17 19 21 23 25 28 30 32 34 36 38 40 43 45 46 48 51 53 55 56 59 62 66 70 75 80 86 89 90 89 88
8 8 9 8 8 7 7 8 7 6 6 6 7 8 9 11 13 15 17 19 22 24 26 28 31 33 35 38 40 42 44 46 48 50 53 55 57 58 60 64 68 72 77 83 87 89 88 86 84
9 8 9 9 8 7 7 7 7 6 6 6 7 8 9 11 12 15 17 20 22 25 27 30 32 35 37 40 42 44 47 49 51 53 55 57 59 60 62 66 70 74 79 84 87 87 85 83 81
10 10 10 9 8 8 7 7 7 7 7 7 8 9 10 11 13 15 18 21 23 26 29 31 34 37 39 41 44 46 49 51 53 55 57 59 61 63 65 68 72 77 81 84 86 85 83 80 78
13 12 11 10 9 9 9 9 9 9 9 9 10 10 11 13 14 17 19 22 25 28 30 33 36 39 41 43 46 48 51 53 56 58 60 62 64 65 67 70 74 78 82 84 84 83 81 78 77
15 14 13 12 12 12 12 11 11 11 12 12 13 13 14 15 17 19 21 24 27 29 32 35 38 40 43 45 47 50 52 55 58 60 62 64 66 67 69 72 76 79 82 83 82 80 79 76 74
17 17 16 15 15 15 15 14 14 15 15 15 16 17 17 18 19 22 24 26 29 31 34 36 39 42 44 47 49 52 54 57 59 62 64 66 68 70 71 74 77 79 81 81 80 78 77 75 73
20 20 19 19 19 19 18 18 17 18 18 19 20 20 21 21 22 24 27 29 31 34 36 38 40 43 46 48 51 53 55 58 61 64 66 68 70 71 73 75 77 79 80 80 78 76 75 74 73
22 23 23 23 23 22 21 22 19 20 21 22 23 24 25 25 26 28 29 32 34 36 38 40 42 45 47 49 52 54 57 59 62 65 67 69 71 73 74 76 77 78 78 78 76 73 72 72 71
24 25 26 26 26 25 25 26 22 23 24 25 26 27 28 29 30 31 33 35 37 39 41 43 45 46 48 50 53 55 58 60 63 66 68 70 72 74 75 76 77 77 77 76 74 72 71 69 69
25 27 28 31 30 29 29 29 25 26 27 28 29 30 32 32 33 34 36 38 40 42 44 45 47 48 50 51 54 56 58 61 64 67 69 71 73 74 76 76 76 76 75 74 72 70 69 68 67
27 28 30 34 35 35 34 32 28 27 29 31 32 33 34 35 36 37 39 40 42 44 46 47 49 50 51 52 54 57 59 61 65 68 70 72 74 75 76 76 75 74 74 73 70 69 68 66 65
30 30 32 35 38 39 38 35 31 29 31 34 35 36 37 38 39 40 41 43 44 46 48 49 51 52 53 54 55 57 60 62 65 68 71 73 74 75 76 75 75 73 73 71 69 67 66 64 63
30 32 34 37 40 43 44 38 32 33 35 37 38 40 41 41 42 43 44 45 46 47 49 51 52 53 54 55 56 58 60 62 65 69 71 73 74 75 75 75 74 72 71 70 67 66 64 63 61
31 32 34 38 40 44 47 42 32 35 37 40 42 43 44 44 44 45 46 47 48 49 50 52 53 54 55 55 56 58 60 62 65 69 72 74 74 75 75 75 73 72 70 69 66 64 63 61 59
Wind_Direction
97 98 96 100 106 109 107 105 102 100 98 98 96 93 87 75 60 35 6 349 341 333 327 322 318 315 313 312 310 310 309 308 307 306 304 303 302 300 299 298 297 295 294 293 292 290 289 287 286
92 93 94 94 98 105 104 101 98 94 90 85 80 72 60 42 16 354 340 333 327 322 319 317 314 313 312 311 310 309 308 307 306 305 303 302 301 300 299 298 297 295 294 293 291 289 288 287 285
91 94 95 98 100 102 99 96 93 87 76 59 42 24 9 359 344 332 325 321 317 315 314 313 311 311 310 310 309 308 307 306 305 304 303 302 301 300 299 298 297 296 295 294 292 291 289 288 286
89 89 92 96 102 98 90 83 74 61 35 9 352 342 337 334 327 320 316 314 312 311 311 310 310 310 309 309 308 307 306 305 304 303 302 301 301 301 300 299 298 298 297 296 295 293 291 289 287
82 80 78 78 76 76 69 49 20 358 340 329 324 320 320 319 316 313 311 309 309 310 310 310 310 310 309 308 307 306 306 305 304 303 303 302 302 302 301 301 301 300 300 299 297 296 294 292 289
70 65 58 31 3 5 5 342 326 322 318 316 313 311 313 312 310 309 308 308 310 310 310 310 310 309 309 308 308 308 307 306 305 305 305 305 305 304 303 303 302 301 301 300 299 297 295 293 291
23 10 352 330 318 321 323 316 312 311 311 308 306 307 312 309 309 308 307 308 310 310 310 310 310 310 310 310 310 310 310 309 309 308 308 307 306 305 305 304 304 303 302 301 300 299 298 296 294
335 327 315 308 307 310 311 309 307 307 306 302 302 305 310 309 309 308 307 308 310 311 310 311 311 312 313 313 313 313 313 312 311 310 309 309 308 307 306 305 304 304 303 302 301 301 300 298 297
317 313 309 307 307 308 306 305 303 302 301 299 300 305 308 308 308 307 308 309 311 311 312 313 315 316 317 317 316 316 315 314 313 312 311 310 309 308 307 306 305 304 303 303 302 302 301 300 299
311 308 305 302 303 304 304 304 301 299 298 298 300 304 306 307 308 308 310 312 313 314 316 318 320 321 321 320 320 319 318 317 316 315 313 312 310 309 308 307 305 305 304 304 304 303 303 301 300
309 307 303 300 300 302 303 305 301 299 299 299 302 304 306 308 310 311 313 314 316 319 322 324 325 326 325 325 324 323 322 320 319 317 315 314 312 310 309 308 307 306 305 305 305 305 304 302 301
312 312 310 306 304 305 307 308 306 304 304 306 309 310 311 313 314 315 317 319 321 325 328 329 329 329 329 329 328 326 325 323 322 320 317 315 313 311 310 309 308 307 306 306 306 306 305 304 302
315 316 313 311 312 311 311 313 311 309 310 313 316 319 319 319 319 321 323 325 328 331 332 333 332 332 332 331 330 329 327 325 324 322 319 317 315 313 311 310 309 308 308 308 308 308 307 306 304
316 315 314 313 314 312 311 312 312 311 312 316 319 322 323 324 326 329 331 332 333 334 335 335 335 334 333 333 331 330 329 327 326 324 322 319 317 315 313 312 311 311 311 311 310 310 309 308 307
310 309 311 311 312 310 310 314 317 315 316 319 321 324 328 332 335 338 338 338 337 337 337 337 336 336 335 334 333 332 331 330 329 328 325 323 320 317 315 314 314 314 314 313 313 313 312 311 309
302 304 306 309 310 308 310 315 322 319 320 324 327 332 337 339 341 342 341 340 339 339 339 339 339 338 337 336 335 334 334 333 332 330 328 326 323 320 318 317 317 317 316 316 316 316 315 314 312
295 298 303 307 306 302 302 306 317 321 324 327 330 334 337 340 342 342 342 342 342 341 341 340 340 340 339 338 337 336 335 335 334 332 331 329 326 324 322 320 320 320 320 320 320 320 319 317 315
291 290 287 286 287 288 291 295 302 309 315 319 322 326 331 335 338 340 342 343 343 342 341 341 340 340 339 338 338 337 337 336 335 334 332 331 329 327 325 323 323 323 323 323 323 323 321 319 318
281 274 267 267 271 278 282 286 288 293 298 304 310 316 323 328 333 337 339 341 343 343 342 341 340 339 339 338 338 337 337 337 336 335 334 332 331 329 328 326 326 326 326 326 326 325 324 322 320
272 269 267 268 270 272 276 280 282 286 291 296 302 308 316 322 327 332 335 338 340 341 341 341 341 339 339 338 338 337 337 337 336 336 335 334 332 331 330 329 329 329 330 329 329 328 326 325 324
271 269 267 267 268 271 274 277 282 284 289 294 299 304 311 318 323 328 331 334 337 339 340 340 340 340 339 338 338 337 337 337 336 336 336 335 334 333 332 332 331 332 332 332 331 329 329 328 327
271 270 268 267 267 270 274 277 282 286 289 293 299 304 310 316 320 324 327 330 333 335 336 338 338 338 338 338 338 337 337 337 337 337 336 336 335 335 334 334 333 334 334 334 333 331 330 330 330
273 270 269 268 268 270 275 278 284 288 290 294 299 304 309 313 317 321 323 326 328 330 333 334 336 336 337 337 337 337 336 336 337 337 337 337 336 336 336 335 335 336 336 336 335 333 332 332 332
274 272 270 268 269 271 274 278 285 288 291 294 298 303 307 310 314 317 319 322 324 327 329 331 333 334 335 335 335 336 336 336 337 337 337 337 337 337 337 337 337 337 338 337 336 335 334 334 334
275 273 272 270 270 272 273 277 286 287 291 294 298 302 305 308 311 315 318 320 322 324 326 328 330 331 332 333 334 334 335 336 337 337 338 338 338 338 338 338 338 339 339 338 337 337 336 336 336
276 274 273 273 273 272 273 277 285 287 290 293 297 300 303 306 309 312 315 317 319 321 323 325 327 328 330 331 332 332 334 335 336 337 338 338 338 339 339 339 339 340 340 340 339 338 338 338 338
278 274 272 272 273 273 274 278 281 286 289 292 295 297 299 303 306 309 311 314 316 318 320 322 324 326 327 328 329 331 332 334 335 336 337 338 338 339 340 340 340 341 341 341 340 340 340 340 340
279 277 274 273 275 276 277 278 283 284 287 291 293 294 297 300 303 306 309 312 314 316 318 320 322 323 325 327 328 329 331 332 334 336 337 338 339 339 340 341 341 342 342 342 341 341 341 341 341
280 279 277 276 276 278 280 281 284 286 288 291 292 293 296 299 302 304 307 309 311 313 315 317 319 321 323 324 326 327 329 331 333 335 336 337 338 340 340 341 342 343 343 343 343 342 342 343 342
282 280 278 277 277 278 281 287 287 286 288 289 290 291 295 298 300 302 305 307 309 311 313 315 317 319 320 322 324 326 327 329 332 334 336 337 338 339 340 341 342 344 344 344 344 344 343 344 344
Height
5888 5888 5888 5890 5890 5890 5889 5889 5889 5888 5888 5888 5888 5888 5889 5889 5889 5891 5888 5886 5885 5884 5883 5881 5880 5879 5877 5875 5874 5872 5870 5868 5866 5864 5862 5860 5859 5857 5855 5853 5852 5851 5849 5848 5847 5846 5845 5845 5844
5889 5890 5891 5891 5891 5891 5891 5890 5889 5889 5889 5889 5888 5888 5888 5888 5887 5887 5885 5884 5883 5882 5881 5879 5878 5876 5874 5872 5870 5868 5866 5864 5862 5859 5857 5855 5853 5851 5849 5847 5845 5844 5842 5841 5839 5838 5837 5836 5835
5892 5892 5893 5892 5892 5892 5892 5891 5890 5890 5889 5889 5888 5887 5887 5887 5886 5885 5884 5883 5881 5880 5878 5877 5875 5873 5871 5869 5867 5864 5862 5860 5857 5854 5852 5849 5847 5845 5842 5840 5838 5836 5834 5832 5830 5829 5828 5827 5825
5894 5895 5894 5894 5893 5893 5892 5891 5890 5890 5889 5888 5887 5887 5886 5886 5884 5883 5882 5880 5879 5877 5876 5874 5872 5870 5867 5865 5863 5860 5857 5855 5852 5849 5846 5843 5841 5838 5835 5832 5830 5827 5825 5822 5820 5818 5817 5815 5814
5896 5896 5895 5894 5894 5893 5892 5891 5890 5889 5888 5887 5886 5885 5884 5884 5882 5881 5879 5878 5876 5874 5873 5871 5868 5866 5863 5861 5858 5855 5852 5849 5846 5843 5840 5837 5834 5831 5827 5824 5821 5818 5815 5812 5809 5806 5804 5802 5800
5897 5896 5896 5895 5894 5893 5892 5890 5889 5888 5887 5886 5884 5883 5883 5882 5880 5878 5877 5875 5873 5871 5869 5867 5864 5862 5859 5856 5853 5850 5847 5843 5840 5837 5833 5830 5826 5822 5819 5815 5811 5807 5804 5800 5797 5793 5790 5787 5784
5898 5897 5895 5894 5893 5892 5891 5889 5888 5886 5885 5883 5882 5880 5880 5879 5877 5876 5874 5872 5870 5868 5865 5863 5860 5857 5854 5851 5848 5844 5841 5837 5833 5829 5825 5821 5817 5813 5809 5805 5800 5796 5792 5787 5783 5779 5774 5770 5766
5897 5897 5894 5893 5891 5890 5889 5887 5886 5884 5883 5881 5879 5878 5877 5876 5874 5873 5871 5869 5867 5864 5861 5859 5856 5853 5849 5846 5842 5838 5834 5830 5826 5822 5817 5813 5808 5804 5799 5794 5789 5784 5779 5774 5769 5763 5757 5751 5745
5895 5895 5892 5890 5889 5888 5886 5885 5884 5882 5881 5879 5877 5876 5875 5873 5871 5870 5868 5865 5863 5860 5857 5854 5851 5848 5844 5840 5836 5832 5828 5823 5819 5814 5809 5804 5799 5794 5788 5783 5778 5772 5766 5760 5754 5747 5740 5732 5724
5894 5893 5891 5889 5887 5885 5884 5883 5881 5880 5878 5877 5875 5874 5872 5871 5869 5867 5864 5862 5859 5856 5853 5849 5846 5842 5839 5834 5830 5825 5821 5816 5811 5805 5800 5795 5789 5784 5778 5772 5766 5760 5753 5746 5739 5731 5722 5712 5702
5892 5890 5888 5886 5884 5883 5881 5880 5879 5877 5876 5875 5874 5872 5870 5868 5866 5864 5861 5858 5855 5852 5849 5845 5841 5837 5833 5829 5824 5819 5814 5808 5803 5797 5791 5785 5779 5773 5767 5761 5754 5747 5740 5732 5724 5714 5703 5692 5679
5889 5888 5886 5884 5882 5880 5879 5877 5876 5874 5874 5872 5871 5869 5867 5866 5863 5861 5858 5855 5852 5848 5845 5841 5837 5832 5828 5823 5818 5812 5807 5801 5795 5789 5783 5776 5770 5763 5756 5749 5742 5734 5726 5718 5708 5697 5684 5669 5653
5887 5886 5884 5882 5880 5878 5877 5875 5874 5872 5870 5868 5867 5866 5864 5862 5860 5858 5855 5852 5848 5844 5841 5837 5832 5827 5822 5817 5812 5806 5801 5794 5788 5782 5775 5768 5760 5753 5746 5738 5730 5721 5712 5702 5690 5677 5662 5645 5627
5886 5884 5882 5880 5878 5876 5874 5873 5871 5870 5868 5866 5864 5863 5861 5859 5857 5854 5851 5848 5844 5841 5837 5832 5827 5823 5818 5812 5807 5801 5794 5788 5781 5774 5766 5759 5751 5743 5735 5726 5717 5707 5697 5685 5671 5656 5638 5619 5599
5884 5882 5880 5878 5876 5874 5873 5871 5870 5868 5866 5864 5862 5861 5858 5856 5854 5851 5848 5844 5841 5837 5832 5828 5823 5818 5813 5807 5801 5795 5788 5781 5773 5766 5758 5750 5741 5732 5723 5714 5704 5693 5680 5667 5651 5633 5613 5593 5572
5883 5881 5879 5877 5875 5872 5872 5869 5868 5865 5864 5862 5860 5858 5856 5853 5850 5847 5844 5841 5837 5833 5828 5823 5818 5813 5807 5801 5795 5788 5781 5774 5766 5757 5749 5740 5731 5721 5711 5700 5689 5677 5663 5647 5630 5610 5589 5568 5547
5881 5879 5876 5875 5873 5870 5869 5867 5865 5863 5861 5859 5857 5855 5852 5850 5847 5844 5840 5837 5833 5828 5824 5819 5813 5807 5801 5795 5788 5781 5773 5765 5757 5748 5739 5729 5719 5709 5698 5686 5674 5660 5644 5627 5607 5586 5564 5544 5524
5879 5877 5874 5873 5871 5869 5867 5865 5863 5860 5858 5856 5854 5852 5849 5846 5843 5840 5836 5833 5828 5824 5819 5813 5807 5801 5795 5788 5781 5773 5765 5757 5748 5738 5729 5718 5708 5696 5685 5672 5658 5643 5626 5606 5585 5564 5542 5521 5501
5876 5875 5873 5871 5869 5867 5865 5863 5861 5858 5856 5854 5852 5849 5846 5843 5840 5836 5832 5828 5824 5819 5813 5807 5801 5795 5788 5781 5773 5765 5756 5747 5738 5728 5718 5707 5695 5683 5671 5657 5642 5626 5607 5587 5565 5544 5523 5502 5481
5874 5872 5870 5868 5866 5864 5862 5860 5858 5856 5854 5852 5849 5846 5843 5840 5836 5832 5828 5823 5818 5813 5807 5801 5795 5788 5781 5773 5765 5756 5747 5738 5728 5718 5706 5695 5683 5670 5656 5642 5626 5608 5589 5568 5546 5524 5504 5484 5463
5870 5868 5866 5865 5863 5861 5859 5858 5856 5853 5850 5848 5846 5843 5839 5836 5831 5827 5823 5818 5813 5807 5801 5795 5788 5781 5773 5765 5756 5747 5738 5728 5718 5707 5695 5683 5670 5656 5642 5626 5609 5591 5571 5550 5529 5507 5487 5469 5450
5866 5864 5862 5861 5859 5857 5856 5854 5852 5849 5846 5844 5842 5838 5835 5831 5827 5822 5817 5812 5807 5801 5795 5788 5781 5773 5765 5756 5748 5738 5729 5718 5708 5696 5683 5670 5656 5642 5627 5611 5593 5575 5555 5534 5513 5492 5472 5453 5436
5861 5859 5858 5856 5854 5853 5850 5849 5848 5845 5842 5839 5837 5833 5830 5826 5821 5817 5812 5806 5801 5794 5788 5781 5773 5765 5757 5748 5739 5729 5719 5709 5697 5685 5672 5658 5644 5629 5613 5596 5578 5560 5540 5519 5498 5478 5459 5440 5421
5856 5854 5852 5850 5848 5848 5846 5843 5843 5840 5838 5835 5831 5828 5824 5820 5815 5811 5805 5800 5793 5787 5780 5773 5765 5757 5749 5740 5730 5721 5710 5699 5687 5675 5661 5647 5632 5616 5600 5583 5565 5546 5526 5506 5487 5467 5448 5430 5411
5851 5849 5847 5844 5843 5843 5839 5837 5838 5835 5832 5829 5825 5821 5817 5813 5808 5803 5798 5792 5786 5779 5772 5765 5757 5749 5740 5731 5722 5712 5701 5690 5677 5665 5651 5636 5621 5605 5588 5571 5553 5534 5515 5495 5476 5457 5439 5421 5403
5845 5843 5841 5838 5836 5835 5832 5830 5833 5829 5826 5822 5818 5815 5810 5806 5801 5796 5790 5784 5778 5771 5764 5756 5749 5740 5732 5722 5713 5703 5692 5680 5668 5655 5642 5626 5611 5594 5577 5560 5542 5523 5505 5486 5467 5448 5430 5413 5396
5839 5837 5834 5831 5827 5826 5824 5824 5826 5823 5818 5815 5811 5807 5803 5798 5793 5788 5782 5776 5770 5763 5755 5748 5740 5732 5723 5714 5704 5694 5683 5671 5659 5646 5632 5617 5601 5585 5568 5550 5533 5514 5496 5477 5459 5441 5423 5406 5389
5832 5830 5828 5824 5819 5817 5816 5816 5818 5816 5811 5807 5803 5799 5794 5790 5785 5780 5774 5768 5761 5754 5747 5739 5731 5722 5714 5704 5695 5685 5674 5662 5650 5637 5622 5607 5592 5575 5558 5541 5524 5506 5487 5469 5452 5434 5417 5400 5384
5826 5824 5820 5816 5812 5809 5805 5810 5811 5808 5803 5799 5794 5789 5785 5781 5776 5770 5765 5759 5752 5745 5737 5729 5721 5713 5704 5695 5685 5675 5664 5653 5641 5628 5613 5598 5583 5566 5550 5533 5516 5498 5480 5463 5445 5428 5412 5396 5380
5818 5816 5813 5809 5805 5800 5795 5800 5805 5800 5794 5789 5784 5779 5775 5771 5766 5761 5755 5749 5742 5735 5727 5720 5712 5703 5695 5686 5676 5666 5655 5644 5631 5618 5604 5589 5574 5558 5542 5525 5508 5491 5474 5456 5440 5424 5407 5392 5376